sat.trackr.live / text

‹ back to catalog

STARLINK-32138

NORAD 60255 · 2024-131A

PAYLOAD ACTIVE UNKNOWN

§ Identity

Operator
Country
US
Launch date
2024-07-27
Launch site
AFETR
Launch vehicle
Mass (kg)
RCS (m²)

Purposes: comms

External: N2YO · Heavens-Above · Gunter

§ Orbital elements

Epoch: 2026-05-25T03:05:45.296736Z

Period
94.01 min
Inclination
53.1608°
Eccentricity
0.0001002
Mean motion
15.31696918 rev/d
Perigee alt
470.1 km
Apogee alt
471.4 km
Semi-major
6,848.9 km
B*
3.3514e-6
RAAN
57.2475°
Arg perigee
100.5296°
Mean anomaly
259.5818°
Rev number
10,372

§ Raw data

STARLINK-321381 60255U 24131A   26145.12899649 -.00000261  00000+0  33514-5 0  99952 60255  53.1608  57.2475 0001002 100.5296 259.5818 15.31696918103729

JSON: /api/v1/satellites/60255 · /tle

For live sub-satellite position, see the globe view (requires WebGL).

§ Visibility from observer

Set your observer location to see the next 7 days of passes ≥ 10°. The values pass through the URL so the page stays shareable.

No JS? Fill the form by hand. The geolocation button needs JavaScript.